Springfield, OH

10:57 PM EDT on September 24, 2017 (GMT -0400)
Springfield-Beckley Municipal

Weather History for KSGH - April, 2013

Change the Weather History Date:

Tuesday, April 30, 2013

  Actual Average (KFFO) Record (KFFO)
Temperature  
Mean Temperature 58 °F -  
Max Temperature 73 °F 67 °F 85 °F (2007)
Min Temperature 43 °F 45 °F 37 °F (2002)
Degree Days  
Heating Degree Days 7    
Growing Degree Days 8 (Base 50)    
Moisture  
Dew Point 48 °F    
Average Humidity 83    
Maximum Humidity 100    
Minimum Humidity 44    
Precipitation  
Precipitation 0.00 in - - ()
Sea Level Pressure  
Sea Level Pressure 30.04 in    
Wind  
Wind Speed 5 mph (SE)    
Max Wind Speed 12 mph    
Max Gust Speed 17 mph    
Visibility 4 miles    
Events Fog , Rain    
Averages and records for this station are not official NWS values.
T = Trace of Precipitation, MM = Missing Value Source: NWS Daily Summary

Daily Weather History Graph

Daily Weather History Graph

Search for Another Location

Airport or City:

Trip Planner

Search our weather history database for the weather conditions in past years. The results will help you decide how hot, cold, wet, or windy it might be!

Date:

Astronomy

Apr. 30, 2013 Rise Set
Actual Time 6:36 AM EDT 8:29 PM EDT
Civil Twilight 6:07 AM EDT 8:58 PM EDT
Nautical Twilight 5:32 AM EDT 9:33 PM EDT
Astronomical Twilight 4:54 AM EDT 10:12 PM EDT
Moon 12:51 AM EDT (4/30) 11:04 AM EDT (4/30)
Length of Visible Light 14h 50m
Length of Day
13h 52m
Waning Gibbous, 70% of the Moon is Illuminated
Apr 30
Waning Gibbous
May 2
Last Quarter
May 9
New
May 18
First Quarter
May 25
Full

Hourly Weather History & Observations

Time (EDT) Temp. Windchill Dew Point Humidity Pressure Visibility Wind Dir Wind Speed Gust Speed Precip Events Conditions
12:56 AM 52.9 °F - 50.0 °F 90% 30.01 in 7.0 mi South 4.6 mph - N/A   Clear
1:56 AM 52.9 °F - 48.9 °F 86% 30.01 in 7.0 mi South 4.6 mph - N/A   Clear
2:42 AM 46.4 °F - 44.6 °F 93% 30.01 in 1.5 mi Calm Calm - N/A   Clear
2:44 AM 46.4 °F - 44.6 °F 93% 30.01 in 0.8 mi Calm Calm - N/A   Clear
2:49 AM 46.4 °F 45.2 °F 44.6 °F 93% 30.01 in 0.2 mi ESE 3.5 mph - N/A Fog Fog
2:56 AM 45.0 °F 43.5 °F 43.0 °F 93% 30.01 in 0.2 mi ESE 3.5 mph - N/A Fog Fog
3:56 AM 43.9 °F 41.3 °F 43.0 °F 97% 30.02 in 0.2 mi SSE 4.6 mph - N/A Fog Fog
3:59 AM 44.6 °F 42.2 °F 42.8 °F 93% 30.02 in 0.8 mi SSE 4.6 mph - N/A   Clear
4:01 AM 44.6 °F 42.2 °F 42.8 °F 93% 30.02 in 1.2 mi SSE 4.6 mph - N/A   Clear
4:16 AM 44.6 °F 40.7 °F 42.8 °F 93% 30.02 in 1.0 mi SSE 6.9 mph - N/A   Clear
4:24 AM 44.6 °F 40.7 °F 42.8 °F 93% 30.02 in 0.8 mi SSE 6.9 mph - N/A   Clear
4:33 AM 46.4 °F 42.9 °F 46.4 °F 100% 30.02 in 1.2 mi SSE 6.9 mph - N/A   Clear
4:37 AM 48.2 °F - 46.4 °F 93% 30.03 in 2.0 mi SSE 6.9 mph - N/A   Clear
4:45 AM 48.2 °F - 48.2 °F 100% 30.02 in 3.0 mi SSE 6.9 mph - N/A   Clear
4:56 AM 48.9 °F - 47.8 °F 96% 30.02 in 3.0 mi SSE 6.9 mph - N/A   Clear
5:13 AM 46.4 °F 44.3 °F 44.6 °F 93% 30.03 in 1.8 mi SE 4.6 mph - N/A   Clear
5:15 AM 46.4 °F 44.3 °F 44.6 °F 93% 30.03 in 0.8 mi SE 4.6 mph - N/A   Clear
5:18 AM 44.6 °F 43.1 °F 44.6 °F 100% 30.03 in 0.2 mi SE 3.5 mph - N/A Fog Fog
5:29 AM 44.6 °F 42.2 °F 44.6 °F 100% 30.03 in 0.2 mi ESE 4.6 mph - N/A Fog Fog
5:47 AM 44.6 °F 41.4 °F 44.6 °F 100% 30.02 in 0.2 mi SE 5.8 mph - N/A Fog Fog
5:56 AM 45.9 °F 43.6 °F 45.0 °F 97% 30.03 in 0.5 mi SE 4.6 mph - N/A Fog Fog
6:15 AM 44.6 °F 43.1 °F 42.8 °F 93% 30.03 in 0.2 mi SE 3.5 mph - N/A Fog Fog
6:40 AM 44.6 °F 43.1 °F 42.8 °F 93% 30.04 in 0.2 mi ESE 3.5 mph - N/A Fog Fog
6:56 AM 43.0 °F 39.5 °F 41.9 °F 96% 30.05 in 0.2 mi ESE 5.8 mph - N/A Fog Fog
7:24 AM 46.4 °F 42.4 °F 44.6 °F 93% 30.05 in 0.5 mi SE 8.1 mph - N/A Fog Fog
7:28 AM 48.2 °F - 46.4 °F 93% 30.05 in 1.0 mi SSE 8.1 mph - N/A   Clear
7:31 AM 48.2 °F - 48.2 °F 100% 30.05 in 1.5 mi SSE 10.4 mph - N/A   Clear
7:34 AM 50.0 °F - 50.0 °F 100% 30.05 in 3.0 mi SSE 10.4 mph - N/A   Clear
7:56 AM 52.0 °F - 50.9 °F 96% 30.06 in 4.0 mi SE 9.2 mph - N/A   Clear
8:56 AM 54.9 °F - 52.9 °F 93% 30.07 in 7.0 mi SSE 10.4 mph - N/A   Clear
9:56 AM 61.0 °F - 52.9 °F 75% 30.08 in 8.0 mi South 9.2 mph - N/A   Clear
10:56 AM 63.9 °F - 52.0 °F 65% 30.08 in 10.0 mi South 9.2 mph - N/A   Partly Cloudy
11:56 AM 65.8 °F - 52.9 °F 63% 30.08 in 10.0 mi SSW 6.9 mph - 0.00 in Rain Light Rain
12:56 PM 68.9 °F - 52.9 °F 57% 30.07 in 9.0 mi SSE 9.2 mph - 0.00 in Rain Light Rain
1:56 PM 70.0 °F - 54.0 °F 57% 30.06 in 9.0 mi Variable 6.9 mph - 0.00 in   Clear
2:56 PM 72.0 °F - 52.9 °F 51% 30.06 in 10.0 mi SSE 9.2 mph 17.3 mph 0.00 in   Clear
3:56 PM 72.9 °F - 52.9 °F 49% 30.05 in 10.0 mi SSE 6.9 mph - 0.00 in   Clear
4:56 PM 73.9 °F - 52.0 °F 46% 30.03 in 10.0 mi ESE 6.9 mph - 0.00 in Rain Light Rain
5:56 PM 73.9 °F - 52.0 °F 46% 30.03 in 10.0 mi SE 11.5 mph - 0.00 in   Clear
6:56 PM 72.9 °F - 50.0 °F 44% 30.04 in 10.0 mi SSE 10.4 mph - N/A   Clear
7:56 PM 70.0 °F - 54.9 °F 59% 30.06 in 10.0 mi SE 5.8 mph - 0.00 in   Clear
8:56 PM 64.9 °F - 52.9 °F 65% 30.08 in 10.0 mi ESE 3.5 mph - N/A   Clear
9:56 PM 61.9 °F - 52.9 °F 72% 30.09 in 10.0 mi SE 4.6 mph - N/A   Clear
10:56 PM 61.9 °F - 52.9 °F 72% 30.09 in 10.0 mi SE 5.8 mph - N/A   Clear
11:56 PM 59.0 °F - 52.0 °F 78% 30.09 in 10.0 mi SE 5.8 mph - N/A   Clear